CZ-4C DEB (43280 NORAD) Tracking and Keplerian Element Data

This shows tracking and keplerian element data for the satellite.

Feedback or suggestion? Click here.




ElementValue
Catalog43280
NameCZ-4C DEB
Epoch Orbit393
Epoch Day129.55407102
Epoch Year2018
RAAN137.3162
Inclination63.4057
Eccentricity0.0007957
Argument of Perigee28.1058
Mean Anonmoly332.0396
Mean Motion13.4381583
Decay Rate-4.6E-07
L11 43280U 18034F 18129.55407102 -.00000046 00000-0 75083-4 0 9996
L22 43280 63.4057 137.3162 0007957 28.1058 332.0396 13.43815830 3936

Live tracking and technical data element details for CZ-4C DEB (NORAD 43280). CZ-4C DEB can be tracked NOW for your location showing map with azimuth and elevation plus other details from your city location.

Track the satellite on the map from your city or location and see movement details for azimuth, elevation, latitude, longitude, range, height, and movement on the map or in text.







IsCatalogInMostPopularTable: catalog: 43280, numindb: 58
Update: records affected: 1



GetName: 43280 CZ-4C DEB

Hit Count: updated at: Fri, 16 Nov 2018 02:54:04 GMT